EW9638 Weather Reports


Display with metric or nautical units.
time (UTC)temp
F
wind
direction
speed
MPH
gust
MPH
rain 1hr
in
rain 24hr
in
rain mn
in
humidity
%
barometer
mb
20191024021517 43 302 2.0 4.0 0.00 0.00 0.00 87 1015.6
20191024020518 43 339 1.0 3.0 0.00 0.00 0.00 86 1015.7
20191024015520 43 315 3.0 5.0 0.00 0.00 0.00 86 1015.5
20191024014522 44 317 4.0 5.0 0.00 0.00 0.00 85 1015.4
20191024013523 44 343 0.0 2.0 0.00 0.00 0.00 85 1015.4
20191024012525 45 320 2.0 3.0 0.00 0.00 0.00 84 1015.3
20191024011527 45 278 2.0 3.0 0.00 0.00 0.00 84 1015.0
20191024010529 46 292 0.0 3.0 0.00 0.00 0.00 81 1014.8
20191024005530 46 202 0.0 2.0 0.00 0.00 0.00 81 1014.6
20191024004532 46 233 2.0 5.0 0.00 0.00 0.00 81 1014.3
20191024003516 46 203 1.0 2.0 0.00 0.00 0.00 81 1014.3
20191024002518 46 201 2.0 4.0 0.00 0.00 0.00 81 1014.4
20191024001519 47 198 1.0 3.0 0.00 0.00 0.00 79 1014.1
20191024000521 47 259 2.0 4.0 0.00 0.00 0.00 75 1013.8
20191023235517 47 276 3.0 4.0 0.00 0.00 0.00 74 1013.5
20191023234524 47 284 2.0 4.0 0.00 0.00 0.00 74 1013.4
20191023233526 47 273 2.0 4.0 0.00 0.00 0.00 73 1013.3
20191023232528 48 246 2.0 3.0 0.00 0.00 0.00 72 1013.2
20191023231529 48 282 2.0 4.0 0.00 0.00 0.00 72 1013.1
20191023230531 48 265 2.0 4.0 0.00 0.00 0.00 72 1012.8
20191023225534 48 289 3.0 4.0 0.00 0.00 0.00 71 1012.4
20191023224517 49 278 2.0 4.0 0.00 0.00 0.00 70 1012.0
20191023223518 49 309 3.0 6.0 0.00 0.00 0.00 69 1011.9
20191023222520 49 308 3.0 5.0 0.00 0.00 0.00 69 1011.9
20191023221521 50 261 2.0 5.0 0.00 0.00 0.00 68 1011.9
20191023220523 50 245 3.0 4.0 0.00 0.00 0.00 66 1011.7
20191023215525 51 258 4.0 9.0 0.00 0.00 0.00 65 1011.7
20191023214521 52 240 4.0 7.0 0.00 0.00 0.00 63 1011.4
20191023213517 53 223 3.0 6.0 0.00 0.00 0.00 60 1011.3
20191023212530 54 268 4.0 8.0 0.00 0.00 0.00 59 1011.2
20191023211532 55 271 4.0 7.0 0.00 0.00 0.00 59 1011.1
20191023210515 54 235 4.0 9.0 0.00 0.00 0.00 59 1011.1
20191023205517 55 221 4.0 9.0 0.00 0.00 0.00 59 1011.2
20191023204519 55 278 4.0 6.0 0.00 0.00 0.00 60 1011.0
20191023203521 55 254 5.0 8.0 0.00 0.00 0.00 60 1010.9
20191023202523 53 183 4.0 6.0 0.00 0.00 0.00 62 1010.8
20191023200546 55 266 4.0 6.0 0.00 0.00 0.00 59 1010.5
20191023195528 55 326 3.0 7.0 0.00 0.00 0.00 60 1010.4
20191023194530 55 224 3.0 6.0 0.00 0.00 0.00 61 1010.5
20191023193525 54 211 4.0 7.0 0.00 0.00 0.00 63 1010.7
20191023192556 54 255 4.0 8.0 0.00 0.00 0.00 63 1010.8
20191023191537 54 190 4.0 7.0 0.00 0.00 0.00 64 1010.7
20191023190519 53 249 5.0 7.0 0.00 0.00 0.00 65 1010.7
20191023185521 53 236 6.0 9.0 0.00 0.00 0.00 65 1010.8
20191023184523 52 207 6.0 9.0 0.00 0.00 0.00 66 1010.9
20191023183524 52 236 5.0 9.0 0.00 0.00 0.00 66 1010.9
20191023182526 53 285 5.0 8.0 0.00 0.00 0.00 65 1010.8
20191023181528 51 204 6.0 9.0 0.00 0.00 0.00 68 1010.9
20191023180530 51 248 6.0 9.0 0.00 0.00 0.00 68 1010.9
20191023175532 49 260 5.0 10.0 0.00 0.00 0.00 70 1010.8
20191023174515 49 244 7.0 11.0 0.00 0.00 0.00 70 1010.7
20191023173517 49 247 6.0 8.0 0.00 0.00 0.00 71 1010.7
20191023172520 48 193 7.0 11.0 0.00 0.00 0.00 71 1010.7
20191023171520 49 208 6.0 8.0 0.00 0.00 0.00 71 1010.7
20191023170522 48 250 7.0 10.0 0.00 0.00 0.00 72 1010.6
20191023165518 47 274 6.0 9.0 0.00 0.00 0.00 74 1010.5
20191023164526 46 261 7.0 10.0 0.00 0.00 0.00 75 1010.6
20191023163527 47 229 8.0 11.0 0.00 0.00 0.00 73 1010.7
20191023162529 46 257 7.0 10.0 0.00 0.00 0.00 75 1010.7
20191023161531 45 243 7.0 11.0 0.00 0.00 0.00 75 1010.7
20191023160515 47 299 7.0 12.0 0.00 0.00 0.00 75 1010.4
20191023155516 46 183 7.0 9.0 0.00 0.00 0.00 76 1010.3
20191023154518 45 222 8.0 11.0 0.00 0.01 0.00 79 1010.2
20191023153520 45 200 7.0 11.0 0.00 0.01 0.00 79 1010.1
20191023152522 44 252 7.0 9.0 0.00 0.01 0.00 79 1010.0
20191023151523 45 243 6.0 15.0 0.00 0.01 0.00 78 1009.9
20191023150525 45 242 6.0 8.0 0.00 0.01 0.00 79 1009.7
20191023145527 44 207 8.0 13.0 0.00 0.01 0.00 80 1009.5
20191023144523 43 199 5.0 9.0 0.00 0.01 0.00 81 1009.4
20191023143518 43 209 5.0 7.0 0.00 0.01 0.00 81 1009.3
20191023142532 43 183 6.0 9.0 0.00 0.03 0.00 82 1009.3
20191023141516 43 211 5.0 10.0 0.00 0.04 0.00 82 1009.1
20191023140517 41 207 6.0 9.0 0.00 0.04 0.00 84 1008.8
20191023135519 41 198 6.0 8.0 0.00 0.04 0.00 85 1008.7
20191023134521 41 204 6.0 10.0 0.00 0.06 0.00 84 1008.5
20191023133522 41 215 7.0 12.0 0.00 0.06 0.00 84 1008.3
20191023132524 41 197 7.0 9.0 0.00 0.06 0.00 84 1008.0
20191023131526 42 193 6.0 8.0 0.00 0.06 0.00 84 1007.8
20191023130527 42 222 6.0 11.0 0.00 0.06 0.00 84 1007.6
20191023125529 42 195 6.0 8.0 0.00 0.06 0.00 84 1007.3
20191023124531 42 182 5.0 8.0 0.00 0.06 0.00 84 1007.0
20191023123527 42 232 4.0 10.0 0.00 0.06 0.00 83 1007.0
20191023122516 42 237 5.0 8.0 0.00 0.06 0.00 83 1006.9
20191023121518 42 221 4.0 8.0 0.00 0.06 0.00 83 1006.9
20191023120519 42 222 5.0 10.0 0.00 0.06 0.00 83 1006.8
20191023115521 42 216 6.0 9.0 0.00 0.06 0.00 83 1006.8
20191023114523 42 213 4.0 7.0 0.00 0.07 0.00 84 1006.6
20191023113528 42 209 4.0 6.0 0.00 0.07 0.00 84 1006.5
20191023112526 43 207 3.0 6.0 0.00 0.09 0.00 83 1006.4
20191023111528 43 247 5.0 10.0 0.00 0.09 0.00 83 1006.3
20191023110530 43 260 6.0 8.0 0.00 0.10 0.00 84 1006.1
20191023105532 43 227 3.0 6.0 0.00 0.10 0.00 84 1006.1
20191023104516 42 222 5.0 7.0 0.00 0.12 0.00 85 1006.0
20191023103518 42 212 4.0 7.0 0.00 0.13 0.00 85 1005.9
20191023102519 41 209 3.0 4.0 0.00 0.13 0.00 87 1005.8
20191023101521 41 221 2.0 3.0 0.00 0.16 0.00 88 1005.7
20191023100523 41 264 4.0 7.0 0.00 0.16 0.00 88 1005.6
20191023095519 41 245 3.0 7.0 0.00 0.16 0.00 88 1005.3
20191023094526 42 261 5.0 7.0 0.00 0.16 0.00 87 1005.1
20191023093528 42 264 5.0 10.0 0.00 0.16 0.00 87 1004.9
20191023092530 42 268 6.0 8.0 0.00 0.18 0.00 88 1004.7
20191023091532 42 262 4.0 6.0 0.00 0.18 0.00 87 1004.6
20191023090515 43 256 3.0 6.0 0.00 0.18 0.00 85 1004.4
20191023085517 43 251 4.0 6.0 0.00 0.18 0.00 85 1004.3
20191023084519 43 261 5.0 9.0 0.00 0.18 0.00 85 1004.4
20191023083522 43 275 4.0 7.0 0.00 0.18 0.00 85 1004.3
20191023082522 43 237 6.0 10.0 0.00 0.18 0.00 85 1004.3
20191023081524 43 287 6.0 11.0 0.00 0.18 0.00 85 1004.3
20191023080525 43 256 5.0 7.0 0.00 0.19 0.00 85 1004.3
20191023075527 43 250 5.0 8.0 0.00 0.22 0.00 85 1004.2
20191023074524 43 252 4.0 9.0 0.00 0.22 0.00 85 1004.1
20191023073519 43 195 6.0 8.0 0.00 0.22 0.00 85 1004.0
20191023072533 43 220 4.0 8.0 0.00 0.22 0.00 85 1003.9
20191023071516 43 262 6.0 9.0 0.00 0.22 0.00 85 1003.9
20191023070518 43 239 6.0 9.0 0.00 0.22 0.00 85 1003.7
20191023065520 42 218 5.0 12.0 0.00 0.22 0.00 85 1003.7
20191023064522 42 223 6.0 9.0 0.00 0.22 0.00 85 1003.6
20191023063523 42 256 5.0 6.0 0.00 0.22 0.00 86 1003.5
20191023062527 42 284 7.0 13.0 0.00 0.22 0.00 86 1003.4
20191023061527 42 267 7.0 13.0 0.00 0.22 0.00 86 1003.4
20191023060529 42 262 6.0 10.0 0.00 0.22 0.00 86 1003.4
20191023055531 42 234 7.0 11.0 0.00 0.22 0.00 86 1003.2
20191023054532 42 240 7.0 13.0 0.00 0.22 0.00 86 1003.2
20191023053516 42 212 6.0 8.0 0.00 0.22 0.00 86 1003.2
20191023052518 42 271 7.0 13.0 0.00 0.22 0.00 86 1003.1
20191023051520 42 254 8.0 13.0 0.00 0.22 0.00 86 1003.0
20191023050515 41 227 5.0 8.0 0.00 0.22 0.00 89 1003.0
20191023045523 41 253 4.0 6.0 0.00 0.22 0.22 89 1002.9
20191023044525 41 247 5.0 10.0 0.00 0.22 0.22 88 1002.9
20191023043527 42 228 6.0 15.0 0.00 0.22 0.22 87 1002.9
20191023042529 42 245 4.0 9.0 0.00 0.22 0.22 86 1002.9
20191023041530 42 252 5.0 9.0 0.00 0.22 0.22 84 1002.9
20191023040532 43 248 7.0 12.0 0.00 0.22 0.22 84 1002.7
20191023035516 42 255 7.0 13.0 0.00 0.22 0.22 84 1002.7
20191023034517 42 236 7.0 12.0 0.00 0.22 0.22 85 1002.7
20191023033519 42 273 7.0 9.0 0.00 0.22 0.22 85 1002.6
20191023032521 42 262 6.0 11.0 0.00 0.22 0.22 85 1002.5
20191023031522 42 246 8.0 11.0 0.00 0.22 0.22 85 1002.5
20191023030523 42 271 9.0 15.0 0.00 0.22 0.22 85 1002.3
20191023025518 42 233 7.0 12.0 0.00 0.22 0.22 86 1002.2
20191023024526 42 234 9.0 14.0 0.00 0.22 0.22 86 1002.1
20191023023528 42 255 8.0 15.0 0.00 0.22 0.22 87 1002.1
20191023022529 42 246 7.0 10.0 0.00 0.22 0.22 88 1002.0